Time,TemperatureF,DewpointF,PressureIn,WindDirection,WindDirectionDegrees,WindSpeedMPH,WindSpeedGustMPH,Humidity,HourlyPrecipIn,Conditions,Clouds,dailyrainin,SoftwareType,DateUTC
2013-04-22 00:00:00,57.8,46.9,30.29,ENE,64,0.0,8.0,67,0.00,,BKN075,0.00,VWS V14.01,2013-04-22 04:00:00,
2013-04-22 00:01:00,57.8,46.9,30.28,ENE,74,0.0,2.0,67,0.00,,CLR,0.00,VWS V14.01,2013-04-22 04:01:00,
2013-04-22 00:06:00,57.8,46.9,30.28,NW,307,0.0,4.0,67,0.00,,CLR,0.00,VWS V14.01,2013-04-22 04:06:00,
2013-04-22 00:10:00,57.6,46.3,30.28,NW,305,6.0,6.0,66,0.00,,CLR,0.00,VWS V14.01,2013-04-22 04:10:00,
2013-04-22 00:15:00,57.5,45.8,30.28,ENE,58,0.0,6.0,65,0.00,,CLR,0.00,VWS V14.01,2013-04-22 04:15:00,
2013-04-22 00:24:00,57.4,46.5,30.28,NW,304,0.0,5.0,67,0.00,,CLR,0.00,VWS V14.01,2013-04-22 04:24:00,
2013-04-22 00:30:00,57.3,46.0,30.28,East,96,0.0,5.0,66,0.00,,CLR,0.00,VWS V14.01,2013-04-22 04:30:00,
2013-04-22 00:38:00,57.1,46.3,30.28,NE,38,4.0,5.0,67,0.00,,CLR,0.00,VWS V14.01,2013-04-22 04:38:00,
2013-04-22 00:45:00,56.9,46.5,30.28,WSW,248,0.0,5.0,68,0.00,,CLR,0.00,VWS V14.01,2013-04-22 04:45:00,
2013-04-22 00:52:00,56.8,46.8,30.28,SE,134,0.0,2.0,69,0.00,,CLR,0.00,VWS V14.01,2013-04-22 04:52:00,
2013-04-22 01:00:00,56.6,46.6,30.29,SSW,202,0.0,3.0,69,0.00,,CLR,0.00,VWS V14.01,2013-04-22 05:00:00,
2013-04-22 01:06:00,56.4,46.0,30.29,NNE,27,0.0,2.0,68,0.00,,BKN044,0.00,VWS V14.01,2013-04-22 05:06:00,
2013-04-22 01:15:00,56.3,46.3,30.28,East,87,0.0,6.0,69,0.00,,BKN044,0.00,VWS V14.01,2013-04-22 05:15:00,
2013-04-22 01:20:00,56.1,45.7,30.28,NE,50,1.0,4.0,68,0.00,,BKN044,0.00,VWS V14.01,2013-04-22 05:20:00,
2013-04-22 01:30:00,55.8,45.8,30.27,NNE,21,0.0,5.0,69,0.00,,BKN044,0.00,VWS V14.01,2013-04-22 05:30:00,
2013-04-22 01:39:00,55.5,46.3,30.27,ENE,63,4.0,6.0,71,0.00,,BKN044,0.00,VWS V14.01,2013-04-22 05:39:00,
2013-04-22 01:45:00,55.3,45.3,30.26,East,92,0.0,7.0,69,0.00,,BKN044,0.00,VWS V14.01,2013-04-22 05:45:00,
2013-04-22 01:53:00,55.1,45.5,30.25,NE,46,0.0,4.0,70,0.00,,BKN044,0.00,VWS V14.01,2013-04-22 05:53:00,
2013-04-22 02:00:00,55.1,45.1,30.25,NE,51,0.0,5.0,69,0.00,,BKN044,0.00,VWS V14.01,2013-04-22 06:00:00,
2013-04-22 02:07:00,54.9,44.5,30.25,NE,56,2.0,4.0,68,0.00,,BKN085,0.00,VWS V14.01,2013-04-22 06:07:00,
2013-04-22 02:15:00,54.6,44.3,30.25,NE,51,0.0,6.0,68,0.00,,BKN085,0.00,VWS V14.01,2013-04-22 06:15:00,
2013-04-22 02:21:00,54.5,44.2,30.25,NW,321,1.0,4.0,68,0.00,,BKN085,0.00,VWS V14.01,2013-04-22 06:21:00,
2013-04-22 02:30:00,54.3,42.8,30.25,North,10,0.0,5.0,65,0.00,,BKN085,0.00,VWS V14.01,2013-04-22 06:30:00,
2013-04-22 02:40:00,54.1,42.6,30.26,NW,319,0.0,5.0,65,0.00,,BKN085,0.00,VWS V14.01,2013-04-22 06:40:00,
2013-04-22 02:45:00,54.0,42.9,30.25,ENE,77,0.0,5.0,66,0.00,,BKN085,0.00,VWS V14.01,2013-04-22 06:45:00,
2013-04-22 02:54:00,53.8,41.5,30.25,NE,46,4.0,7.0,63,0.00,,BKN085,0.00,VWS V14.01,2013-04-22 06:54:00,
2013-04-22 03:00:00,53.6,41.3,30.25,East,79,0.0,7.0,63,0.00,,BKN085,0.00,VWS V14.01,2013-04-22 07:00:00,
2013-04-22 03:07:00,53.4,41.9,30.25,ENE,72,0.0,1.0,65,0.00,,OVC080,0.00,VWS V14.01,2013-04-22 07:07:00,
2013-04-22 03:15:00,53.2,41.8,30.25,North,355,0.0,6.0,65,0.00,,OVC080,0.00,VWS V14.01,2013-04-22 07:15:00,
2013-04-22 03:21:00,53.0,40.8,30.25,NW,325,2.0,6.0,63,0.00,,OVC080,0.00,VWS V14.01,2013-04-22 07:21:00,
2013-04-22 03:30:00,52.9,40.7,30.25,NE,56,0.0,6.0,63,0.00,,OVC080,0.00,VWS V14.01,2013-04-22 07:30:00,
2013-04-22 03:35:00,52.8,41.0,30.25,ESE,106,0.0,6.0,64,0.00,,OVC080,0.00,VWS V14.01,2013-04-22 07:35:00,
2013-04-22 03:45:00,52.6,41.2,30.25,NE,51,0.0,6.0,65,0.00,,OVC080,0.00,VWS V14.01,2013-04-22 07:45:00,
2013-04-22 03:54:00,52.4,41.0,30.25,East,80,0.0,5.0,65,0.00,,OVC080,0.00,VWS V14.01,2013-04-22 07:54:00,
2013-04-22 04:00:00,52.3,40.9,30.25,NE,46,4.0,5.0,65,0.00,,OVC080,0.00,VWS V14.01,2013-04-22 08:00:00,
2013-04-22 04:08:00,52.0,40.6,30.24,North,355,0.0,6.0,65,0.00,,OVC070,0.00,VWS V14.01,2013-04-22 08:08:00,
2013-04-22 04:15:00,51.7,40.7,30.24,SSE,153,0.0,6.0,66,0.00,,OVC070,0.00,VWS V14.01,2013-04-22 08:15:00,
2013-04-22 04:22:00,51.5,40.9,30.25,ESE,105,0.0,2.0,67,0.00,,OVC070,0.00,VWS V14.01,2013-04-22 08:22:00,
2013-04-22 04:30:00,51.2,39.8,30.24,ESE,121,0.0,7.0,65,0.00,,OVC070,0.00,VWS V14.01,2013-04-22 08:30:00,
2013-04-22 04:36:00,51.1,40.5,30.24,NNE,19,0.0,6.0,67,0.00,,OVC070,0.00,VWS V14.01,2013-04-22 08:36:00,
2013-04-22 04:45:00,51.0,39.7,30.24,ENE,64,3.0,8.0,65,0.00,,OVC070,0.00,VWS V14.01,2013-04-22 08:45:00,
2013-04-22 04:50:00,51.0,39.7,30.25,NNW,336,2.0,5.0,65,0.00,,OVC070,0.00,VWS V14.01,2013-04-22 08:50:00,
2013-04-22 05:00:00,51.0,39.7,30.25,NW,313,0.0,5.0,65,0.00,,OVC070,0.00,VWS V14.01,2013-04-22 09:00:00,
2013-04-22 05:09:00,50.9,39.6,30.24,NW,315,0.0,4.0,65,0.00,,OVC070,0.00,VWS V14.01,2013-04-22 09:09:00,
2013-04-22 05:15:00,50.7,39.4,30.24,NNW,330,0.0,7.0,65,0.00,,OVC070,0.00,VWS V14.01,2013-04-22 09:15:00,
2013-04-22 05:23:00,50.5,39.2,30.25,NW,304,0.0,4.0,65,0.00,,OVC070,0.00,VWS V14.01,2013-04-22 09:23:00,
2013-04-22 05:30:00,50.3,39.0,30.25,ENE,70,0.0,5.0,65,0.00,,OVC070,0.00,VWS V14.01,2013-04-22 09:30:00,
2013-04-22 05:37:00,50.2,38.9,30.25,WNW,298,0.0,6.0,65,0.00,,OVC070,0.00,VWS V14.01,2013-04-22 09:37:00,
2013-04-22 05:45:00,50.0,37.9,30.25,NE,53,0.0,6.0,63,0.00,,OVC070,0.00,VWS V14.01,2013-04-22 09:45:00,
2013-04-22 05:51:00,49.9,37.8,30.25,NNE,25,0.0,5.0,63,0.00,,OVC070,0.00,VWS V14.01,2013-04-22 09:51:00,
2013-04-22 06:00:00,49.7,38.0,30.25,NNE,15,0.0,5.0,64,0.00,,OVC070,0.00,VWS V14.01,2013-04-22 10:00:00,
2013-04-22 06:09:00,49.3,37.2,30.25,ENE,60,0.0,6.0,63,0.00,,OVC070,0.00,VWS V14.01,2013-04-22 10:09:00,
2013-04-22 06:15:00,49.2,36.8,30.26,ENE,65,1.0,6.0,62,0.00,,OVC070,0.00,VWS V14.01,2013-04-22 10:15:00,
2013-04-22 06:23:00,49.1,35.8,30.26,NW,306,2.0,4.0,60,0.00,,OVC070,0.00,VWS V14.01,2013-04-22 10:23:00,
2013-04-22 06:30:00,49.1,35.8,30.26,NW,316,1.0,4.0,60,0.00,,OVC070,0.00,VWS V14.01,2013-04-22 10:30:00,
2013-04-22 06:37:00,49.1,35.8,30.26,NW,326,1.0,1.0,60,0.00,,FEW085,0.00,VWS V14.01,2013-04-22 10:37:00,
2013-04-22 06:45:00,49.0,34.9,30.27,North,355,0.0,3.0,58,0.00,,FEW085,0.00,VWS V14.01,2013-04-22 10:45:00,
2013-04-22 06:51:00,49.0,34.9,30.27,NNW,344,0.0,4.0,58,0.00,,FEW085,0.00,VWS V14.01,2013-04-22 10:51:00,
2013-04-22 07:00:00,49.0,34.9,30.27,NNW,342,0.0,5.0,58,0.00,,FEW085,0.00,VWS V14.01,2013-04-22 11:00:00,
2013-04-22 07:05:00,48.9,34.8,30.27,NE,40,0.0,4.0,58,0.00,,OVC100,0.00,VWS V14.01,2013-04-22 11:05:00,
2013-04-22 07:15:00,48.8,34.7,30.27,North,5,0.0,5.0,58,0.00,,OVC100,0.00,VWS V14.01,2013-04-22 11:15:00,
2013-04-22 07:24:00,48.6,34.9,30.26,NE,38,0.0,2.0,59,0.00,,OVC100,0.00,VWS V14.01,2013-04-22 11:24:00,
2013-04-22 07:30:00,48.5,35.7,30.26,NNW,348,0.0,2.0,61,0.00,,OVC100,0.00,VWS V14.01,2013-04-22 11:30:00,
2013-04-22 07:38:00,48.3,36.3,30.26,NNW,342,0.0,4.0,63,0.00,,OVC100,0.00,VWS V14.01,2013-04-22 11:38:00,
2013-04-22 07:45:00,48.3,37.9,30.27,NNE,13,0.0,6.0,67,0.00,,OVC100,0.00,VWS V14.01,2013-04-22 11:45:00,
2013-04-22 07:52:00,48.6,38.5,30.26,North,355,0.0,5.0,68,0.00,,OVC100,0.00,VWS V14.01,2013-04-22 11:52:00,
2013-04-22 08:00:00,48.8,38.7,30.26,WNW,297,0.0,5.0,68,0.00,,OVC100,0.00,VWS V14.01,2013-04-22 12:00:00,
2013-04-22 08:06:00,48.7,38.6,30.26,NNW,329,0.0,2.0,68,0.00,,OVC090,0.00,VWS V14.01,2013-04-22 12:06:00,
2013-04-22 08:15:00,48.7,39.4,30.27,NNE,32,0.0,4.0,70,0.00,,OVC090,0.00,VWS V14.01,2013-04-22 12:15:00,
2013-04-22 08:25:00,49.0,39.7,30.27,NW,317,0.0,3.0,70,0.00,,OVC090,0.00,VWS V14.01,2013-04-22 12:25:00,
2013-04-22 08:30:00,49.1,40.1,30.27,NNW,331,0.0,6.0,71,0.00,,OVC090,0.00,VWS V14.01,2013-04-22 12:30:00,
2013-04-22 08:39:00,49.5,40.5,30.28,ENE,63,0.0,2.0,71,0.00,,OVC090,0.00,VWS V14.01,2013-04-22 12:39:00,
2013-04-22 08:45:00,49.5,40.5,30.28,NW,314,0.0,4.0,71,0.00,,OVC090,0.00,VWS V14.01,2013-04-22 12:45:00,
2013-04-22 08:52:00,49.4,40.4,30.28,NNE,19,1.0,4.0,71,0.00,,OVC090,0.00,VWS V14.01,2013-04-22 12:52:00,
2013-04-22 09:00:00,49.5,40.9,30.28,NE,34,0.0,5.0,72,0.00,,OVC090,0.00,VWS V14.01,2013-04-22 13:00:00,
2013-04-22 09:06:00,49.8,41.5,30.28,NW,307,0.0,6.0,73,0.00,,OVC080,0.00,VWS V14.01,2013-04-22 13:06:00,
2013-04-22 09:15:00,50.2,41.5,30.27,North,355,0.0,6.0,72,0.00,,OVC080,0.00,VWS V14.01,2013-04-22 13:15:00,
2013-04-22 09:20:00,50.3,41.6,30.28,NE,52,2.0,6.0,72,0.00,,OVC080,0.00,VWS V14.01,2013-04-22 13:20:00,
2013-04-22 09:30:00,50.4,42.1,30.27,NNE,17,0.0,6.0,73,0.00,,OVC080,0.00,VWS V14.01,2013-04-22 13:30:00,
2013-04-22 09:39:00,50.6,42.3,30.27,NE,41,0.0,6.0,73,0.00,,OVC080,0.00,VWS V14.01,2013-04-22 13:39:00,
2013-04-22 09:45:00,50.7,42.4,30.26,North,355,0.0,6.0,73,0.00,,OVC080,0.00,VWS V14.01,2013-04-22 13:45:00,
2013-04-22 09:53:00,50.9,42.9,30.26,North,355,0.0,5.0,74,0.00,,OVC080,0.00,VWS V14.01,2013-04-22 13:53:00,
2013-04-22 10:00:00,51.0,43.0,30.26,NW,315,0.0,6.0,74,0.00,,OVC080,0.00,VWS V14.01,2013-04-22 14:00:00,
2013-04-22 10:07:00,51.5,43.1,30.26,WNW,301,4.0,7.0,73,0.00,,OVC070,0.00,VWS V14.01,2013-04-22 14:07:00,
2013-04-22 10:15:00,52.9,44.1,30.26,NNE,26,0.0,7.0,72,0.00,,OVC070,0.00,VWS V14.01,2013-04-22 14:15:00,
2013-04-22 10:21:00,53.3,44.2,30.26,NNE,24,1.0,9.0,71,0.00,,OVC070,0.00,VWS V14.01,2013-04-22 14:21:00,
2013-04-22 10:30:00,53.0,43.9,30.26,NNW,328,0.0,9.0,71,0.00,,OVC070,0.00,VWS V14.01,2013-04-22 14:30:00,
2013-04-22 10:35:00,53.6,44.4,30.26,NNW,329,0.0,2.0,71,0.00,,OVC070,0.00,VWS V14.01,2013-04-22 14:35:00,
2013-04-22 10:44:00,54.3,43.6,30.26,North,360,0.0,7.0,67,0.00,,OVC070,0.00,VWS V14.01,2013-04-22 14:44:00,
2013-04-22 10:45:00,54.2,43.5,30.26,NNW,333,1.0,7.0,67,0.00,,FEW040,0.00,VWS V14.01,2013-04-22 14:45:00,
2013-04-22 10:54:00,54.9,44.5,30.26,WNW,299,5.0,8.0,68,0.00,,OVC070,0.00,VWS V14.01,2013-04-22 14:54:00,
2013-04-22 11:00:00,55.6,44.8,30.26,NNE,12,0.0,8.0,67,0.00,,OVC070,0.00,VWS V14.01,2013-04-22 15:00:00,
2013-04-22 11:08:00,56.5,45.3,30.27,North,351,2.0,7.0,66,0.00,,CLR,0.00,VWS V14.01,2013-04-22 15:08:00,
2013-04-22 11:15:00,56.7,45.1,30.26,ENE,64,1.0,7.0,65,0.00,,CLR,0.00,VWS V14.01,2013-04-22 15:15:00,
2013-04-22 11:22:00,57.5,45.8,30.26,NNW,328,3.0,6.0,65,0.00,,CLR,0.00,VWS V14.01,2013-04-22 15:22:00,
2013-04-22 11:30:00,58.1,45.6,30.26,NNW,346,0.0,7.0,63,0.00,,CLR,0.00,VWS V14.01,2013-04-22 15:30:00,
2013-04-22 11:36:00,58.4,45.5,30.26,North,350,0.0,7.0,62,0.00,,CLR,0.00,VWS V14.01,2013-04-22 15:36:00,
2013-04-22 11:45:00,59.0,46.0,30.25,WNW,296,7.0,7.0,62,0.00,,CLR,0.00,VWS V14.01,2013-04-22 15:45:00,
2013-04-22 11:54:00,59.4,46.4,30.25,East,93,2.0,8.0,62,0.00,,CLR,0.00,VWS V14.01,2013-04-22 15:54:00,
2013-04-22 12:00:00,59.7,46.2,30.25,NE,54,0.0,8.0,61,0.00,,CLR,0.00,VWS V14.01,2013-04-22 16:00:00,
2013-04-22 12:08:00,60.1,46.2,30.25,NE,36,1.0,7.0,60,0.00,,CLR,0.00,VWS V14.01,2013-04-22 16:08:00,
2013-04-22 12:15:00,60.5,46.1,30.25,North,360,0.0,8.0,59,0.00,,CLR,0.00,VWS V14.01,2013-04-22 16:15:00,
2013-04-22 12:22:00,60.7,47.2,30.24,NW,306,2.0,6.0,61,0.00,,CLR,0.00,VWS V14.01,2013-04-22 16:22:00,
2013-04-22 12:30:00,61.2,46.8,30.24,NE,38,1.0,7.0,59,0.00,,CLR,0.00,VWS V14.01,2013-04-22 16:30:00,
2013-04-22 12:36:00,61.3,46.4,30.24,NNW,327,3.0,5.0,58,0.00,,CLR,0.00,VWS V14.01,2013-04-22 16:36:00,
2013-04-22 12:45:00,61.7,46.3,30.23,NW,319,5.0,6.0,57,0.00,,CLR,0.00,VWS V14.01,2013-04-22 16:45:00,
2013-04-22 12:50:00,62.0,46.1,30.23,NNE,26,3.0,5.0,56,0.00,,CLR,0.00,VWS V14.01,2013-04-22 16:50:00,
2013-04-22 13:00:00,62.4,46.5,30.23,NW,315,1.0,5.0,56,0.00,,CLR,0.00,VWS V14.01,2013-04-22 17:00:00,
2013-04-22 13:09:00,63.0,46.1,30.22,NNW,329,2.0,7.0,54,0.00,,CLR,0.00,VWS V14.01,2013-04-22 17:09:00,
2013-04-22 13:15:00,63.1,46.2,30.22,WNW,291,5.0,7.0,54,0.00,,CLR,0.00,VWS V14.01,2013-04-22 17:15:00,
2013-04-22 13:23:00,63.5,47.1,30.22,SE,127,2.0,7.0,55,0.00,,CLR,0.00,VWS V14.01,2013-04-22 17:23:00,
2013-04-22 13:30:00,64.4,46.9,30.22,NNW,333,0.0,7.0,53,0.00,,CLR,0.00,VWS V14.01,2013-04-22 17:30:00,
2013-04-22 13:37:00,64.3,46.8,30.22,ENE,74,1.0,5.0,53,0.00,,CLR,0.00,VWS V14.01,2013-04-22 17:37:00,
2013-04-22 13:45:00,64.3,47.8,30.21,NE,54,0.0,5.0,55,0.00,,CLR,0.00,VWS V14.01,2013-04-22 17:45:00,
2013-04-22 13:51:00,65.0,48.5,30.21,NNW,330,0.0,6.0,55,0.00,,CLR,0.00,VWS V14.01,2013-04-22 17:51:00,
2013-04-22 14:00:00,66.1,47.5,30.21,NNW,329,3.0,6.0,51,0.00,,CLR,0.00,VWS V14.01,2013-04-22 18:00:00,
2013-04-22 14:09:00,66.1,48.0,30.20,NW,316,1.0,7.0,52,0.00,,CLR,0.00,VWS V14.01,2013-04-22 18:09:00,
2013-04-22 14:15:00,66.3,49.7,30.20,NE,34,2.0,7.0,55,0.00,,CLR,0.00,VWS V14.01,2013-04-22 18:15:00,
2013-04-22 14:23:00,65.8,48.2,30.20,NNE,17,2.0,5.0,53,0.00,,CLR,0.00,VWS V14.01,2013-04-22 18:23:00,
2013-04-22 14:30:00,66.1,48.5,30.19,SSE,153,2.0,6.0,53,0.00,,CLR,0.00,VWS V14.01,2013-04-22 18:30:00,
2013-04-22 14:37:00,66.2,48.1,30.19,WNW,298,0.0,9.0,52,0.00,,CLR,0.00,VWS V14.01,2013-04-22 18:37:00,
2013-04-22 14:45:00,66.5,48.3,30.19,NNE,28,0.0,9.0,52,0.00,,CLR,0.00,VWS V14.01,2013-04-22 18:45:00,
2013-04-22 14:51:00,66.4,48.3,30.18,NNW,331,0.0,5.0,52,0.00,,CLR,0.00,VWS V14.01,2013-04-22 18:51:00,
2013-04-22 15:00:00,67.0,48.8,30.18,ENE,65,2.0,7.0,52,0.00,,CLR,0.00,VWS V14.01,2013-04-22 19:00:00,
2013-04-22 15:05:00,66.8,49.1,30.17,NW,317,6.0,9.0,53,0.00,,CLR,0.00,VWS V14.01,2013-04-22 19:05:00,
2013-04-22 15:15:00,66.9,48.7,30.17,NNW,337,4.0,12.0,52,0.00,,CLR,0.00,VWS V14.01,2013-04-22 19:15:00,
2013-04-22 15:24:00,67.7,48.9,30.17,NNE,17,0.0,7.0,51,0.00,,CLR,0.00,VWS V14.01,2013-04-22 19:24:00,
2013-04-22 15:30:00,67.7,48.9,30.17,NNW,336,4.0,7.0,51,0.00,,CLR,0.00,VWS V14.01,2013-04-22 19:30:00,
2013-04-22 15:38:00,67.7,48.9,30.16,North,355,4.0,7.0,51,0.00,,CLR,0.00,VWS V14.01,2013-04-22 19:38:00,
2013-04-22 15:45:00,67.6,47.8,30.16,NE,44,0.0,7.0,49,0.00,,CLR,0.00,VWS V14.01,2013-04-22 19:45:00,
2013-04-22 15:52:00,67.8,47.4,30.16,East,79,0.0,5.0,48,0.00,,CLR,0.00,VWS V14.01,2013-04-22 19:52:00,
2013-04-22 16:00:00,67.7,47.9,30.15,NNW,334,1.0,9.0,49,0.00,,CLR,0.00,VWS V14.01,2013-04-22 20:00:00,
2013-04-22 16:06:00,67.9,47.5,30.15,NW,311,1.0,6.0,48,0.00,,CLR,0.00,VWS V14.01,2013-04-22 20:06:00,
2013-04-22 16:15:00,68.0,47.6,30.15,WNW,291,4.0,6.0,48,0.00,,CLR,0.00,VWS V14.01,2013-04-22 20:15:00,
2013-04-22 16:25:00,68.0,47.6,30.14,WNW,286,4.0,6.0,48,0.00,,CLR,0.00,VWS V14.01,2013-04-22 20:25:00,
2013-04-22 16:30:00,68.0,47.6,30.14,NW,304,0.0,6.0,48,0.00,,CLR,0.00,VWS V14.01,2013-04-22 20:30:00,
2013-04-22 16:39:00,68.5,47.5,30.14,NW,315,5.0,6.0,47,0.00,,CLR,0.00,VWS V14.01,2013-04-22 20:39:00,
2013-04-22 16:45:00,68.0,47.0,30.14,NW,314,0.0,9.0,47,0.00,,CLR,0.00,VWS V14.01,2013-04-22 20:45:00,
2013-04-22 16:53:00,67.9,48.6,30.14,NNW,346,0.0,5.0,50,0.00,,CLR,0.00,VWS V14.01,2013-04-22 20:53:00,
2013-04-22 17:00:00,67.8,48.0,30.13,NNE,14,3.0,5.0,49,0.00,,CLR,0.00,VWS V14.01,2013-04-22 21:00:00,
2013-04-22 17:07:00,67.2,46.9,30.13,NW,311,3.0,5.0,48,0.00,,CLR,0.00,VWS V14.01,2013-04-22 21:07:00,
2013-04-22 17:15:00,67.0,46.7,30.13,NW,321,0.0,5.0,48,0.00,,CLR,0.00,VWS V14.01,2013-04-22 21:15:00,
2013-04-22 17:21:00,67.0,47.2,30.13,NNE,13,1.0,4.0,49,0.00,,CLR,0.00,VWS V14.01,2013-04-22 21:21:00,
2013-04-22 17:30:00,66.7,45.8,30.13,NW,315,1.0,6.0,47,0.00,,CLR,0.00,VWS V14.01,2013-04-22 21:30:00,
2013-04-22 17:39:00,66.5,47.3,30.13,NNW,335,0.0,5.0,50,0.00,,CLR,0.00,VWS V14.01,2013-04-22 21:39:00,
2013-04-22 17:45:00,66.3,46.6,30.13,NW,314,0.0,6.0,49,0.00,,CLR,0.00,VWS V14.01,2013-04-22 21:45:00,
2013-04-22 17:53:00,66.2,46.5,30.13,NNE,25,0.0,4.0,49,0.00,,CLR,0.00,VWS V14.01,2013-04-22 21:53:00,
2013-04-22 18:00:00,66.0,46.3,30.12,WNW,294,2.0,4.0,49,0.00,,CLR,0.00,VWS V14.01,2013-04-22 22:00:00,
2013-04-22 18:07:00,65.8,46.1,30.12,NW,323,0.0,4.0,49,0.00,,CLR,0.00,VWS V14.01,2013-04-22 22:07:00,
2013-04-22 18:15:00,65.6,46.0,30.12,NW,322,2.0,4.0,49,0.00,,CLR,0.00,VWS V14.01,2013-04-22 22:15:00,
2013-04-22 18:21:00,65.4,46.3,30.12,North,360,0.0,4.0,50,0.00,,CLR,0.00,VWS V14.01,2013-04-22 22:21:00,
2013-04-22 18:30:00,65.2,46.1,30.12,WNW,302,0.0,4.0,50,0.00,,CLR,0.00,VWS V14.01,2013-04-22 22:30:00,
2013-04-22 18:35:00,65.0,47.0,30.12,North,360,0.0,2.0,52,0.00,,CLR,0.00,VWS V14.01,2013-04-22 22:35:00,
2013-04-22 18:45:00,64.7,47.2,30.12,North,9,0.0,2.0,53,0.00,,CLR,0.00,VWS V14.01,2013-04-22 22:45:00,
2013-04-22 18:54:00,64.4,47.9,30.12,North,355,0.0,5.0,55,0.00,,CLR,0.00,VWS V14.01,2013-04-22 22:54:00,
2013-04-22 19:00:00,64.2,47.7,30.12,NW,304,0.0,5.0,55,0.00,,CLR,0.00,VWS V14.01,2013-04-22 23:00:00,
2013-04-22 19:08:00,63.9,47.9,30.12,NW,304,0.0,1.0,56,0.00,,CLR,0.00,VWS V14.01,2013-04-22 23:08:00,
2013-04-22 19:15:00,63.6,48.1,30.12,NW,313,1.0,2.0,57,0.00,,CLR,0.00,VWS V14.01,2013-04-22 23:15:00,
2013-04-22 19:22:00,63.4,48.4,30.12,NW,313,0.0,2.0,58,0.00,,CLR,0.00,VWS V14.01,2013-04-22 23:22:00,
2013-04-22 19:30:00,63.0,48.5,30.12,NW,313,0.0,2.0,59,0.00,,CLR,0.00,VWS V14.01,2013-04-22 23:30:00,
2013-04-22 19:36:00,62.7,48.6,30.12,NW,313,0.0,1.0,60,0.00,,CLR,0.00,VWS V14.01,2013-04-22 23:36:00,
2013-04-22 19:45:00,62.1,48.5,30.13,NW,312,0.0,2.0,61,0.00,,CLR,0.00,VWS V14.01,2013-04-22 23:45:00,
2013-04-22 19:54:00,61.6,48.5,30.13,NW,311,0.0,0.0,62,0.00,,CLR,0.00,VWS V14.01,2013-04-22 23:54:00,
2013-04-22 20:00:00,61.2,48.1,30.13,West,267,0.0,1.0,62,0.00,,CLR,0.00,VWS V14.01,2013-04-23 00:00:00,
2013-04-22 20:08:00,60.8,48.1,30.13,West,267,0.0,1.0,63,0.00,,CLR,0.00,VWS V14.01,2013-04-23 00:08:00,
2013-04-22 20:15:00,60.4,48.6,30.13,West,267,0.0,1.0,65,0.00,,CLR,0.00,VWS V14.01,2013-04-23 00:15:00,
2013-04-22 20:22:00,59.9,48.5,30.14,West,267,0.0,0.0,66,0.00,,CLR,0.00,VWS V14.01,2013-04-23 00:22:00,
2013-04-22 20:30:00,59.5,48.5,30.14,West,267,0.0,1.0,67,0.00,,CLR,0.00,VWS V14.01,2013-04-23 00:30:00,
2013-04-22 20:36:00,59.1,48.6,30.14,West,267,0.0,0.0,68,0.00,,CLR,0.00,VWS V14.01,2013-04-23 00:36:00,
2013-04-22 20:45:00,59.0,48.9,30.14,West,272,0.0,1.0,69,0.00,,CLR,0.00,VWS V14.01,2013-04-23 00:45:00,
2013-04-22 20:50:00,59.0,48.9,30.14,West,273,0.0,2.0,69,0.00,,CLR,0.00,VWS V14.01,2013-04-23 00:50:00,
2013-04-22 21:00:00,59.0,49.2,30.14,West,273,0.0,2.0,70,0.00,,CLR,0.00,VWS V14.01,2013-04-23 01:00:00,
2013-04-22 21:09:00,58.6,48.9,30.15,West,273,0.0,1.0,70,0.00,,CLR,0.00,VWS V14.01,2013-04-23 01:09:00,
2013-04-22 21:15:00,58.4,49.0,30.15,West,273,0.0,1.0,71,0.00,,CLR,0.00,VWS V14.01,2013-04-23 01:15:00,
2013-04-22 21:23:00,58.3,49.0,30.16,West,273,0.0,0.0,71,0.00,,CLR,0.00,VWS V14.01,2013-04-23 01:23:00,
2013-04-22 21:30:00,58.1,49.1,30.16,West,273,0.0,0.0,72,0.00,,CLR,0.00,VWS V14.01,2013-04-23 01:30:00,
2013-04-22 21:37:00,57.8,49.2,30.16,West,273,0.0,0.0,73,0.00,,CLR,0.00,VWS V14.01,2013-04-23 01:37:00,
2013-04-22 21:45:00,57.3,49.1,30.16,West,273,0.0,0.0,74,0.00,,CLR,0.00,VWS V14.01,2013-04-23 01:45:00,
2013-04-22 21:51:00,57.0,49.2,30.16,West,273,0.0,1.0,75,0.00,,CLR,0.00,VWS V14.01,2013-04-23 01:51:00,
2013-04-22 22:00:00,56.6,49.1,30.17,West,273,0.0,4.0,76,0.00,,CLR,0.00,VWS V14.01,2013-04-23 02:00:00,
2013-04-22 22:10:00,56.7,49.2,30.17,West,273,0.0,2.0,76,0.00,,CLR,0.00,VWS V14.01,2013-04-23 02:10:00,
2013-04-22 22:15:00,56.8,49.0,30.17,West,274,0.0,2.0,75,0.00,,CLR,0.00,VWS V14.01,2013-04-23 02:15:00,
2013-04-22 22:24:00,56.8,49.0,30.17,West,274,0.0,1.0,75,0.00,,CLR,0.00,VWS V14.01,2013-04-23 02:24:00,
2013-04-22 22:30:00,56.8,48.6,30.17,West,274,0.0,2.0,74,0.00,,CLR,0.00,VWS V14.01,2013-04-23 02:30:00,
2013-04-22 22:38:00,57.1,48.5,30.17,NW,319,0.0,4.0,73,0.00,,CLR,0.00,VWS V14.01,2013-04-23 02:38:00,
2013-04-22 22:45:00,57.2,48.3,30.17,WNW,300,0.0,4.0,72,0.00,,CLR,0.00,VWS V14.01,2013-04-23 02:45:00,
2013-04-22 22:53:00,57.1,48.5,30.17,WNW,300,0.0,1.0,73,0.00,,CLR,0.00,VWS V14.01,2013-04-23 02:53:00,
2013-04-22 23:00:00,56.9,48.3,30.17,WNW,300,0.0,1.0,73,0.00,,CLR,0.00,VWS V14.01,2013-04-23 03:00:00,
2013-04-22 23:07:00,56.6,48.1,30.17,WNW,302,0.0,2.0,73,0.00,,CLR,0.00,VWS V14.01,2013-04-23 03:07:00,
2013-04-22 23:15:00,56.5,48.3,30.16,NW,304,0.0,2.0,74,0.00,,CLR,0.00,VWS V14.01,2013-04-23 03:15:00,
2013-04-22 23:21:00,56.4,48.2,30.16,NW,304,0.0,1.0,74,0.00,,CLR,0.00,VWS V14.01,2013-04-23 03:21:00,
2013-04-22 23:30:00,56.1,48.3,30.16,NW,304,0.0,1.0,75,0.00,,CLR,0.00,VWS V14.01,2013-04-23 03:30:00,
2013-04-22 23:35:00,56.0,48.2,30.16,NW,304,0.0,0.0,75,0.00,,CLR,0.00,VWS V14.01,2013-04-23 03:35:00,
2013-04-22 23:45:00,55.7,48.3,30.16,NW,304,0.0,1.0,76,0.00,,CLR,0.00,VWS V14.01,2013-04-23 03:45:00,
2013-04-22 23:54:00,55.5,48.4,30.16,NW,304,0.0,0.0,77,0.00,,CLR,0.00,VWS V14.01,2013-04-23 03:54:00,